Time,TemperatureF,DewpointF,PressureIn,WindDirection,WindDirectionDegrees,WindSpeedMPH,WindSpeedGustMPH,Humidity,HourlyPrecipIn,Conditions,Clouds,dailyrainin,SolarRadiationWatts/m^2,SoftwareType,DateUTC
2013-03-11 00:02:00,62.0,55.0,-100.00,ESE,106,4.0,-999.0,78,0.00,,,-99.99,0.000000,,2013-03-11 04:02:00,
2013-03-11 00:12:00,62.0,56.0,-100.00,ESE,105,4.0,-999.0,79,0.00,,,-99.99,0.000000,,2013-03-11 04:12:00,
2013-03-11 00:22:00,62.0,56.0,-100.00,ESE,105,4.0,-999.0,79,0.00,,,-99.99,0.000000,,2013-03-11 04:22:00,
2013-03-11 00:32:00,62.0,56.0,-100.00,ESE,111,4.0,-999.0,80,0.00,,,-99.99,0.000000,,2013-03-11 04:32:00,
2013-03-11 00:43:00,62.0,56.0,-100.00,ESE,114,4.0,-999.0,81,0.00,,,-99.99,0.000000,,2013-03-11 04:43:00,
2013-03-11 00:53:00,62.0,56.0,-100.00,ESE,114,4.0,-999.0,81,0.00,,,-99.99,0.000000,,2013-03-11 04:53:00,
2013-03-11 01:03:00,61.0,56.0,-100.00,ESE,113,5.0,-999.0,81,0.00,,,-99.99,0.000000,,2013-03-11 05:03:00,
2013-03-11 01:12:00,61.0,56.0,-100.00,ESE,113,4.0,-999.0,82,0.00,,,-99.99,0.000000,,2013-03-11 05:12:00,
2013-03-11 01:22:00,61.0,56.0,-100.00,ESE,113,4.0,-999.0,82,0.00,,,-99.99,0.000000,,2013-03-11 05:22:00,
2013-03-11 01:32:00,61.0,56.0,-100.00,ESE,113,3.0,-999.0,82,0.00,,,-99.99,0.000000,,2013-03-11 05:32:00,
2013-03-11 01:43:00,61.0,56.0,-100.00,ESE,114,3.0,-999.0,83,0.00,,,-99.99,0.000000,,2013-03-11 05:43:00,
2013-03-11 01:52:00,61.0,56.0,-100.00,ESE,114,3.0,-999.0,83,0.00,,,-99.99,0.000000,,2013-03-11 05:52:00,
2013-03-11 02:02:00,61.0,56.0,-100.00,ESE,120,4.0,-999.0,83,0.00,,,-99.99,0.000000,,2013-03-11 06:02:00,
2013-03-11 02:12:00,60.0,56.0,-100.00,ESE,122,3.0,-999.0,84,0.00,,,-99.99,0.000000,,2013-03-11 06:12:00,
2013-03-11 02:22:00,60.0,56.0,-100.00,ESE,122,3.0,-999.0,84,0.00,,,-99.99,0.000000,,2013-03-11 06:22:00,
2013-03-11 02:32:00,60.0,55.0,-100.00,ESE,117,3.0,-999.0,85,0.00,,,-99.99,0.000000,,2013-03-11 06:32:00,
2013-03-11 02:42:00,60.0,55.0,-100.00,ESE,116,3.0,-999.0,86,0.00,,,-99.99,0.000000,,2013-03-11 06:42:00,
2013-03-11 02:53:00,60.0,55.0,-100.00,ESE,116,3.0,-999.0,86,0.00,,,-99.99,0.000000,,2013-03-11 06:53:00,
2013-03-11 03:03:00,59.0,55.0,-100.00,SE,126,2.0,-999.0,86,0.00,,,-99.99,0.000000,,2013-03-11 07:03:00,
2013-03-11 03:12:00,59.0,55.0,-100.00,SE,137,2.0,-999.0,87,0.00,,,-99.99,0.000000,,2013-03-11 07:12:00,
2013-03-11 03:22:00,59.0,55.0,-100.00,SE,137,2.0,-999.0,87,0.00,,,-99.99,0.000000,,2013-03-11 07:22:00,
2013-03-11 03:32:00,58.0,55.0,-100.00,SE,130,2.0,-999.0,89,0.00,,,-99.99,0.000000,,2013-03-11 07:32:00,
2013-03-11 03:42:00,58.0,55.0,-100.00,SE,137,2.0,-999.0,90,0.00,,,-99.99,0.000000,,2013-03-11 07:42:00,
2013-03-11 03:52:00,58.0,55.0,-100.00,SE,137,2.0,-999.0,90,0.00,,,-99.99,0.000000,,2013-03-11 07:52:00,
2013-03-11 04:02:00,57.0,55.0,-100.00,SE,139,2.0,-999.0,90,0.00,,,-99.99,0.000000,,2013-03-11 08:02:00,
2013-03-11 04:12:00,57.0,55.0,-100.00,SE,130,2.0,-999.0,91,0.00,,,-99.99,0.000000,,2013-03-11 08:12:00,
2013-03-11 04:22:00,57.0,55.0,-100.00,SE,130,2.0,-999.0,91,0.00,,,-99.99,0.000000,,2013-03-11 08:22:00,
2013-03-11 04:32:00,57.0,55.0,-100.00,ESE,105,2.0,-999.0,92,0.00,,,-99.99,0.000000,,2013-03-11 08:32:00,
2013-03-11 04:42:00,57.0,55.0,-100.00,ESE,102,2.0,-999.0,92,0.00,,,-99.99,0.000000,,2013-03-11 08:42:00,
2013-03-11 04:52:00,57.0,55.0,-100.00,ESE,102,2.0,-999.0,92,0.00,,,-99.99,0.000000,,2013-03-11 08:52:00,
2013-03-11 05:02:00,58.0,55.0,-100.00,ESE,107,2.0,-999.0,91,0.00,,,-99.99,0.000000,,2013-03-11 09:02:00,
2013-03-11 05:12:00,58.0,55.0,-100.00,East,99,2.0,-999.0,90,0.00,,,-99.99,0.000000,,2013-03-11 09:12:00,
2013-03-11 05:23:00,58.0,55.0,-100.00,East,99,2.0,-999.0,90,0.00,,,-99.99,0.000000,,2013-03-11 09:23:00,
2013-03-11 05:32:00,58.0,55.0,-100.00,ESE,115,2.0,-999.0,90,0.00,,,-99.99,0.000000,,2013-03-11 09:32:00,
2013-03-11 05:42:00,58.0,55.0,-100.00,SSE,159,1.0,-999.0,90,0.00,,,-99.99,0.000000,,2013-03-11 09:42:00,
2013-03-11 05:52:00,58.0,55.0,-100.00,SSE,159,1.0,-999.0,90,0.00,,,-99.99,0.000000,,2013-03-11 09:52:00,
2013-03-11 06:02:00,57.0,54.0,-100.00,SSE,153,2.0,-999.0,91,0.00,,,-99.99,0.000000,,2013-03-11 10:02:00,
2013-03-11 06:12:00,57.0,55.0,-100.00,SE,136,3.0,-999.0,92,0.00,,,-99.99,0.000000,,2013-03-11 10:12:00,
2013-03-11 06:22:00,57.0,55.0,-100.00,SE,136,3.0,-999.0,92,0.00,,,-99.99,0.000000,,2013-03-11 10:22:00,
2013-03-11 06:32:00,57.0,55.0,-100.00,SE,135,3.0,-999.0,92,0.00,,,-99.99,0.000000,,2013-03-11 10:32:00,
2013-03-11 06:42:00,57.0,55.0,-100.00,SE,144,2.0,-999.0,92,0.00,,,-99.99,0.000000,,2013-03-11 10:42:00,
2013-03-11 06:52:00,57.0,55.0,-100.00,SE,144,2.0,-999.0,92,0.00,,,-99.99,0.000000,,2013-03-11 10:52:00,
2013-03-11 07:02:00,57.0,55.0,-100.00,SE,135,2.0,-999.0,92,0.00,,,-99.99,0.000000,,2013-03-11 11:02:00,
2013-03-11 07:12:00,57.0,55.0,-100.00,ESE,118,2.0,-999.0,92,0.00,,,-99.99,0.000000,,2013-03-11 11:12:00,
2013-03-11 07:22:00,57.0,55.0,-100.00,ESE,118,2.0,-999.0,92,0.00,,,-99.99,0.000000,,2013-03-11 11:22:00,
2013-03-11 07:32:00,57.0,55.0,-100.00,SE,126,2.0,-999.0,92,0.00,,,-99.99,0.000000,,2013-03-11 11:32:00,
2013-03-11 07:42:00,57.0,55.0,-100.00,SE,136,1.0,-999.0,93,0.00,,,-99.99,0.400000,,2013-03-11 11:42:00,
2013-03-11 07:53:00,57.0,55.0,-100.00,SE,136,1.0,-999.0,93,0.00,,,-99.99,0.400000,,2013-03-11 11:53:00,
2013-03-11 08:02:00,56.0,55.0,-100.00,SSE,150,1.0,-999.0,93,0.00,,,-99.99,5.600000,,2013-03-11 12:02:00,
2013-03-11 08:12:00,56.0,55.0,-100.00,SE,135,3.0,-999.0,93,0.00,,,-99.99,20.100000,,2013-03-11 12:12:00,
2013-03-11 08:22:00,56.0,55.0,-100.00,SE,135,3.0,-999.0,93,0.00,,,-99.99,20.100000,,2013-03-11 12:22:00,
2013-03-11 08:32:00,58.0,56.0,-100.00,SE,125,2.0,-999.0,94,0.00,,,-99.99,38.400002,,2013-03-11 12:32:00,
2013-03-11 08:43:00,59.0,57.0,-100.00,SE,124,3.0,-999.0,93,0.00,,,-99.99,79.599998,,2013-03-11 12:43:00,
2013-03-11 08:53:00,59.0,57.0,-100.00,SE,124,3.0,-999.0,93,0.00,,,-99.99,79.599998,,2013-03-11 12:53:00,
2013-03-11 09:02:00,60.0,58.0,-100.00,SE,135,2.0,-999.0,92,0.00,,,-99.99,133.500000,,2013-03-11 13:02:00,
2013-03-11 09:12:00,62.0,59.0,-100.00,SE,142,4.0,-999.0,89,0.00,,,-99.99,223.699997,,2013-03-11 13:12:00,
2013-03-11 09:22:00,62.0,59.0,-100.00,SE,142,4.0,-999.0,89,0.00,,,-99.99,223.699997,,2013-03-11 13:22:00,
2013-03-11 09:32:00,64.0,59.0,-100.00,SE,139,6.0,-999.0,84,0.00,,,-99.99,246.100006,,2013-03-11 13:32:00,
2013-03-11 09:42:00,65.0,59.0,-100.00,SE,144,5.0,-999.0,80,0.00,,,-99.99,266.500000,,2013-03-11 13:42:00,
2013-03-11 09:53:00,65.0,59.0,-100.00,SE,144,5.0,-999.0,80,0.00,,,-99.99,266.500000,,2013-03-11 13:53:00,
2013-03-11 10:02:00,66.0,59.0,-100.00,SSE,147,6.0,-999.0,78,0.00,,,-99.99,209.100006,,2013-03-11 14:02:00,
2013-03-11 10:12:00,66.0,59.0,-100.00,SE,144,6.0,-999.0,77,0.00,,,-99.99,267.600006,,2013-03-11 14:12:00,
2013-03-11 10:22:00,66.0,59.0,-100.00,SE,144,6.0,-999.0,77,0.00,,,-99.99,267.600006,,2013-03-11 14:22:00,
2013-03-11 10:33:00,68.0,59.0,-100.00,SE,146,6.0,-999.0,74,0.00,,,-99.99,362.899994,,2013-03-11 14:33:00,
2013-03-11 10:42:00,69.0,59.0,-100.00,SSE,149,7.0,-999.0,69,0.00,,,-99.99,449.799988,,2013-03-11 14:42:00,
2013-03-11 10:53:00,69.0,59.0,-100.00,SSE,149,7.0,-999.0,69,0.00,,,-99.99,449.799988,,2013-03-11 14:53:00,
2013-03-11 11:02:00,70.0,59.0,-100.00,SE,140,7.0,-999.0,66,0.00,,,-99.99,517.500000,,2013-03-11 15:02:00,
2013-03-11 11:13:00,72.0,58.0,-100.00,SE,140,8.0,-999.0,63,0.00,,,-99.99,523.000000,,2013-03-11 15:13:00,
2013-03-11 11:22:00,72.0,58.0,-100.00,SE,140,8.0,-999.0,63,0.00,,,-99.99,523.000000,,2013-03-11 15:22:00,
2013-03-11 11:32:00,72.0,58.0,-100.00,SE,144,8.0,-999.0,60,0.00,,,-99.99,553.099976,,2013-03-11 15:32:00,
2013-03-11 11:42:00,73.0,58.0,-100.00,SSE,147,8.0,-999.0,57,0.00,,,-99.99,628.900024,,2013-03-11 15:42:00,
2013-03-11 11:53:00,73.0,58.0,-100.00,SSE,147,8.0,-999.0,57,0.00,,,-99.99,628.900024,,2013-03-11 15:53:00,
2013-03-11 12:02:00,74.0,58.0,-100.00,SE,146,7.0,-999.0,56,0.00,,,-99.99,614.799988,,2013-03-11 16:02:00,
2013-03-11 12:13:00,74.0,58.0,-100.00,SE,145,7.0,-999.0,56,0.00,,,-99.99,476.100006,,2013-03-11 16:13:00,
2013-03-11 12:22:00,74.0,58.0,-100.00,SE,145,7.0,-999.0,56,0.00,,,-99.99,476.100006,,2013-03-11 16:22:00,
2013-03-11 12:32:00,74.0,58.0,-100.00,SE,144,7.0,-999.0,56,0.00,,,-99.99,377.299988,,2013-03-11 16:32:00,
2013-03-11 12:43:00,74.0,58.0,-100.00,SSE,150,6.0,-999.0,56,0.00,,,-99.99,412.000000,,2013-03-11 16:43:00,
2013-03-11 12:52:00,74.0,58.0,-100.00,SSE,150,6.0,-999.0,56,0.00,,,-99.99,412.000000,,2013-03-11 16:52:00,
2013-03-11 13:02:00,75.0,58.0,-100.00,SSE,158,4.0,-999.0,55,0.00,,,-99.99,335.700012,,2013-03-11 17:02:00,
2013-03-11 13:16:00,76.0,57.0,-100.00,South,170,3.0,-999.0,53,0.00,,,-99.99,426.600006,,2013-03-11 17:16:00,
2013-03-11 13:26:00,76.0,57.0,-100.00,South,170,3.0,-999.0,53,0.00,,,-99.99,426.600006,,2013-03-11 17:26:00,
2013-03-11 13:35:00,76.0,58.0,-100.00,SSE,167,3.0,-999.0,53,0.00,,,-99.99,301.600006,,2013-03-11 17:35:00,
2013-03-11 13:42:00,76.0,58.0,-100.00,SSE,160,3.0,-999.0,53,0.00,,,-99.99,338.299988,,2013-03-11 17:42:00,
2013-03-11 13:53:00,76.0,58.0,-100.00,SSE,160,3.0,-999.0,53,0.00,,,-99.99,338.299988,,2013-03-11 17:53:00,
2013-03-11 14:02:00,76.0,58.0,-100.00,SSE,168,3.0,-999.0,52,0.00,,,-99.99,390.600006,,2013-03-11 18:02:00,
2013-03-11 14:12:00,77.0,58.0,-100.00,South,174,3.0,-999.0,50,0.00,,,-99.99,462.399994,,2013-03-11 18:12:00,
2013-03-11 14:23:00,77.0,58.0,-100.00,South,174,3.0,-999.0,50,0.00,,,-99.99,462.399994,,2013-03-11 18:23:00,
2013-03-11 14:32:00,77.0,58.0,-100.00,SSE,167,3.0,-999.0,50,0.00,,,-99.99,426.799988,,2013-03-11 18:32:00,
2013-03-11 14:42:00,78.0,58.0,-100.00,SSE,164,3.0,-999.0,49,0.00,,,-99.99,472.799988,,2013-03-11 18:42:00,
2013-03-11 14:53:00,78.0,58.0,-100.00,SSE,164,3.0,-999.0,49,0.00,,,-99.99,472.799988,,2013-03-11 18:53:00,
2013-03-11 15:02:00,79.0,58.0,-100.00,South,183,3.0,-999.0,47,0.00,,,-99.99,644.900024,,2013-03-11 19:02:00,
2013-03-11 15:12:00,80.0,58.0,-100.00,SSE,164,3.0,-999.0,46,0.00,,,-99.99,538.500000,,2013-03-11 19:12:00,
2013-03-11 15:22:00,80.0,58.0,-100.00,SSE,164,3.0,-999.0,46,0.00,,,-99.99,538.500000,,2013-03-11 19:22:00,
2013-03-11 15:33:00,79.0,58.0,-100.00,South,174,3.0,-999.0,47,0.00,,,-99.99,553.299988,,2013-03-11 19:33:00,
2013-03-11 15:42:00,78.0,57.0,-100.00,South,170,3.0,-999.0,48,0.00,,,-99.99,238.199997,,2013-03-11 19:42:00,
2013-03-11 15:53:00,78.0,57.0,-100.00,South,170,3.0,-999.0,48,0.00,,,-99.99,238.199997,,2013-03-11 19:53:00,
2013-03-11 16:02:00,78.0,58.0,-100.00,South,169,3.0,-999.0,49,0.00,,,-99.99,449.200012,,2013-03-11 20:02:00,
2013-03-11 16:12:00,79.0,57.0,-100.00,South,183,3.0,-999.0,47,0.00,,,-99.99,484.100006,,2013-03-11 20:12:00,
2013-03-11 16:22:00,79.0,57.0,-100.00,South,183,3.0,-999.0,47,0.00,,,-99.99,484.100006,,2013-03-11 20:22:00,
2013-03-11 16:32:00,79.0,57.0,-100.00,South,181,2.0,-999.0,46,0.00,,,-99.99,297.500000,,2013-03-11 20:32:00,
2013-03-11 16:43:00,78.0,57.0,-100.00,SSE,162,2.0,-999.0,48,0.00,,,-99.99,253.100006,,2013-03-11 20:43:00,
2013-03-11 16:53:00,78.0,57.0,-100.00,SSE,162,2.0,-999.0,48,0.00,,,-99.99,253.100006,,2013-03-11 20:53:00,
2013-03-11 17:03:00,78.0,57.0,-100.00,SSE,155,2.0,-999.0,48,0.00,,,-99.99,211.399994,,2013-03-11 21:03:00,
2013-03-11 17:13:00,77.0,57.0,-100.00,SSE,156,2.0,-999.0,49,0.00,,,-99.99,156.699997,,2013-03-11 21:13:00,
2013-03-11 17:22:00,77.0,57.0,-100.00,SSE,156,2.0,-999.0,49,0.00,,,-99.99,156.699997,,2013-03-11 21:22:00,
2013-03-11 17:32:00,77.0,57.0,-100.00,South,173,2.0,-999.0,49,0.00,,,-99.99,129.899994,,2013-03-11 21:32:00,
2013-03-11 17:44:00,77.0,57.0,-100.00,SSE,162,2.0,-999.0,49,0.00,,,-99.99,134.699997,,2013-03-11 21:44:00,
2013-03-11 17:53:00,77.0,57.0,-100.00,SSE,162,2.0,-999.0,49,0.00,,,-99.99,134.699997,,2013-03-11 21:53:00,
2013-03-11 18:03:00,77.0,57.0,-100.00,SSE,162,1.0,-999.0,50,0.00,,,-99.99,103.800003,,2013-03-11 22:03:00,
2013-03-11 18:12:00,77.0,57.0,-100.00,SSE,161,2.0,-999.0,50,0.00,,,-99.99,161.399994,,2013-03-11 22:12:00,
2013-03-11 18:22:00,77.0,57.0,-100.00,SSE,161,2.0,-999.0,50,0.00,,,-99.99,161.399994,,2013-03-11 22:22:00,
2013-03-11 18:32:00,77.0,57.0,-100.00,SSE,155,2.0,-999.0,51,0.00,,,-99.99,91.199997,,2013-03-11 22:32:00,
2013-03-11 18:43:00,76.0,57.0,-100.00,SSE,158,2.0,-999.0,51,0.00,,,-99.99,64.300003,,2013-03-11 22:43:00,
2013-03-11 18:53:00,76.0,57.0,-100.00,SSE,158,2.0,-999.0,51,0.00,,,-99.99,64.300003,,2013-03-11 22:53:00,
2013-03-11 19:03:00,77.0,57.0,-100.00,SSE,164,2.0,-999.0,51,0.00,,,-99.99,106.099998,,2013-03-11 23:03:00,
2013-03-11 19:12:00,76.0,58.0,-100.00,South,175,1.0,-999.0,52,0.00,,,-99.99,53.900002,,2013-03-11 23:12:00,
2013-03-11 19:22:00,76.0,58.0,-100.00,South,175,1.0,-999.0,52,0.00,,,-99.99,53.900002,,2013-03-11 23:22:00,
2013-03-11 19:32:00,75.0,58.0,-100.00,South,176,1.0,-999.0,54,0.00,,,-99.99,13.700000,,2013-03-11 23:32:00,
2013-03-11 19:43:00,74.0,58.0,-100.00,SSE,157,1.0,-999.0,56,0.00,,,-99.99,4.400000,,2013-03-11 23:43:00,
2013-03-11 19:53:00,74.0,58.0,-100.00,SSE,157,1.0,-999.0,56,0.00,,,-99.99,4.400000,,2013-03-11 23:53:00,
2013-03-11 20:02:00,74.0,58.0,-100.00,SSE,153,2.0,-999.0,57,0.00,,,-99.99,0.600000,,2013-03-12 00:02:00,
2013-03-11 20:13:00,74.0,57.0,-100.00,SSE,160,2.0,-999.0,57,0.00,,,-99.99,0.000000,,2013-03-12 00:13:00,
2013-03-11 20:23:00,74.0,57.0,-100.00,SSE,160,2.0,-999.0,57,0.00,,,-99.99,0.000000,,2013-03-12 00:23:00,
2013-03-11 20:33:00,73.0,58.0,-100.00,SW,220,2.0,-999.0,57,0.00,,,-99.99,0.000000,,2013-03-12 00:33:00,
2013-03-11 20:42:00,73.0,58.0,-100.00,WSW,258,1.0,-999.0,59,0.00,,,-99.99,0.000000,,2013-03-12 00:42:00,
2013-03-11 20:53:00,73.0,58.0,-100.00,WSW,258,1.0,-999.0,59,0.00,,,-99.99,0.000000,,2013-03-12 00:53:00,
2013-03-11 21:02:00,71.0,58.0,-100.00,West,268,1.0,-999.0,62,0.00,,,-99.99,0.000000,,2013-03-12 01:02:00,
2013-03-11 21:12:00,70.0,58.0,-100.00,SSE,161,0.0,-999.0,65,0.00,,,-99.99,0.000000,,2013-03-12 01:12:00,
2013-03-11 21:22:00,70.0,58.0,-100.00,SSE,161,0.0,-999.0,65,0.00,,,-99.99,0.000000,,2013-03-12 01:22:00,
2013-03-11 21:33:00,70.0,58.0,-100.00,SSE,168,1.0,-999.0,65,0.00,,,-99.99,0.000000,,2013-03-12 01:33:00,
2013-03-11 21:42:00,69.0,58.0,-100.00,South,173,1.0,-999.0,68,0.00,,,-99.99,0.000000,,2013-03-12 01:42:00,
2013-03-11 21:53:00,69.0,58.0,-100.00,South,173,1.0,-999.0,68,0.00,,,-99.99,0.000000,,2013-03-12 01:53:00,
2013-03-11 22:02:00,68.0,57.0,-100.00,SW,218,2.0,-999.0,68,0.00,,,-99.99,0.000000,,2013-03-12 02:02:00,
2013-03-11 22:12:00,69.0,57.0,-100.00,South,172,1.0,-999.0,65,0.00,,,-99.99,0.000000,,2013-03-12 02:12:00,
2013-03-11 22:22:00,69.0,57.0,-100.00,South,172,1.0,-999.0,65,0.00,,,-99.99,0.000000,,2013-03-12 02:22:00,
2013-03-11 22:32:00,69.0,57.0,-100.00,SSW,200,1.0,-999.0,67,0.00,,,-99.99,0.000000,,2013-03-12 02:32:00,
2013-03-11 22:42:00,68.0,58.0,-100.00,SSW,192,1.0,-999.0,68,0.00,,,-99.99,0.000000,,2013-03-12 02:42:00,
2013-03-11 22:52:00,68.0,58.0,-100.00,SSW,192,1.0,-999.0,68,0.00,,,-99.99,0.000000,,2013-03-12 02:52:00,
2013-03-11 23:02:00,68.0,58.0,-100.00,South,182,1.0,-999.0,68,0.00,,,-99.99,0.000000,,2013-03-12 03:02:00,
2013-03-11 23:12:00,69.0,57.0,-100.00,SSE,164,1.0,-999.0,66,0.00,,,-99.99,0.000000,,2013-03-12 03:12:00,
2013-03-11 23:22:00,69.0,57.0,-100.00,SSE,164,1.0,-999.0,66,0.00,,,-99.99,0.000000,,2013-03-12 03:22:00,
2013-03-11 23:32:00,69.0,57.0,-100.00,SSE,158,2.0,-999.0,66,0.00,,,-99.99,0.000000,,2013-03-12 03:32:00,
2013-03-11 23:42:00,69.0,58.0,-100.00,SSE,156,2.0,-999.0,67,0.00,,,-99.99,0.000000,,2013-03-12 03:42:00,
2013-03-11 23:53:00,69.0,58.0,-100.00,SSE,156,2.0,-999.0,67,0.00,,,-99.99,0.000000,,2013-03-12 03:53:00,